User: anonymous   Login
Location: Unspecified
(0.0000°N, 0.0000°E)
Time: 02:21:49
(UTC+00:00)
Language:

Midas 4 - Orbit

View from above orbital plane
View from above orbital plane
View from above satellite
View from above satellite

Ground track
Ground track

The orbit data is extracted from the following two-line orbital elements,

1   192U 61028A   18020.72013632 -.00000009 +00000-0 -27297-2 0  9994
2   192 095.8706 297.9543 0139868 090.7413 270.9467 08.67757977781900
Epoch (UTC): 20 January 2018 17:16:59
Eccentricity: 0.0139868
inclination: 95.8706°
perigee height: 3485 km
apogee height: 3765 km
right ascension of ascending node: 297.9543°
argument of perigee: 90.7413°
revolutions per day: 8.67757977
mean anomaly at epoch: 270.9467°
orbit number at epoch: 78190

The dashed part of the orbit path shows where the satellite is in the earth's shadow,  

DLR